Flag for Brazil Weather past 2 weeks in Santa María, Rio Grande do Sul, Brazil

77 °F

Partly sunny.

Feels Like: 79 °F
Forecast: 63 / 77 °F
Wind: 13 mph from Northwest

Location: Porto Alegre Aero-Porto

Current Time: Nov 28, 2015 at 1:05:52 PM

Latest Report: Nov 28, 2015 at 12:00 PM

Visibility: N/A

Pressure: 29.77 "Hg

Humidity: 79%

Dew point: 70 °F

Location of Santa MaríaLocation

Historic Weather in Santa María — Graph


Santa María temperature yesterday

Maximum temperature yesterday: 82 °F (at 11:00 AM)
Minimum temperature yesterday: 70 °F (at 12:00 AM)
Average temperature yesterday: 75 °F

Past Weeks' High & Low Weather Summary

High90 °F (Nov 13, 5:00 PM)100% (Nov 16, 9:00 PM)30.04 "Hg (Nov 16, 9:00 PM)
Low32 °F (Nov 16, 9:00 PM)44% (Nov 21, 5:00 PM)29.47 "Hg (Nov 19, 5:00 PM)
Average71 °F76%29.81 "Hg
* Reported Nov 13 12:00 Noon — Nov 28 12:00 Noon, Santa María, Weather by CustomWeather, © 2015

Note: Actual official high and low records may vary slightly from our data, if they occured in-between our weather recording intervals... More about our weather records


Santa María weather history for previous 24 hours

Time TempWeatherWind HumidityBarometerVisibility
12:00 PM
Sat, Nov 28
77 °FPartly sunny.13 mph79%29.77 "HgN/A
11:00 AM75 °FOvercast.14 mph83%29.77 "HgN/A
10:00 AM75 °FPartly sunny.13 mph83%29.74 "HgN/A
9:00 AM75 °FBroken clouds.7 mph83%29.74 "HgN/A
8:00 AM73 °FScattered clouds.6 mph83%29.71 "HgN/A
7:00 AM73 °FScattered clouds.6 mph83%29.71 "HgN/A
6:00 AM72 °FPassing clouds.5 mph83%29.68 "HgN/A
5:00 AM73 °FPassing clouds.7 mph83%29.68 "HgN/A
4:00 AM75 °FOvercast.8 mph78%29.68 "HgN/A
3:00 AM75 °FPartly cloudy.9 mph78%29.68 "HgN/A
2:00 AM77 °FClear.10 mph74%29.68 "Hg10 mi
1:00 AM72 °FClear.5 mph94%29.68 "Hg10 mi
12:00 AM73 °FClear.6 mph89%29.71 "Hg10 mi
11:00 PM
Fri, Nov 27
72 °FClear.3 mph94%29.71 "Hg10 mi
10:00 PM73 °FPassing clouds.2 mph94%29.68 "HgN/A
9:00 PM73 °FPassing clouds.7 mph94%29.68 "HgN/A
8:00 PM75 °FPartly sunny.7 mph94%29.68 "Hg6 mi
7:00 PM75 °FLight rain. Mostly cloudy.12 mph94%29.71 "HgN/A
6:00 PM77 °FMore clouds than sun.12 mph94%29.68 "Hg5 mi
5:00 PM77 °FMostly cloudy.8 mph89%29.71 "Hg5 mi
4:00 PM77 °FThunderstorms. Mostly cloudy.8 mph89%29.74 "Hg4 mi
3:00 PM79 °FRain. More clouds than sun.5 mph79%N/A2 mi
2:00 PM81 °FOvercast.9 mph74%29.80 "HgN/A
1:00 PM82 °FSunny.9 mph66%29.80 "Hg10 mi
Weather by CustomWeather, © 2015

See weather overviewHow to use our weather pages